カタログに戻る

STARLINK-35557

運用中通信VLEO
NORAD 66237·PAYLOAD·🇺🇸 United States

打ち上げ Oct 29, 2025 から Cape Canaveral Space Force Station

Loading…

次のパス (今後24時間)

TLE

最新Source: CelesTrak SupGP

元期: Sep 14, 2026, 23:02 UTC

1 66237C 25245D   26257.96020833 -.00035919  00000+0 -10614-2 0  2574
2 66237  53.1572 119.9471 0001261  89.0696 229.6563 15.34403022    17

AllMySatでSTARLINK-35557をリアルタイム追跡

Download on the App Store